Time,TemperatureF,DewpointF,PressureIn,WindDirection,WindDirectionDegrees,WindSpeedMPH,WindSpeedGustMPH,Humidity,HourlyPrecipIn,Conditions,Clouds,dailyrainin,SoftwareType,DateUTC
2013-01-30 00:00:00,27.3,12.8,30.19,NNW,338,3.0,3.0,54,0.00,,,0.00,Wunderground v.1.15,2013-01-30 07:00:00,
2013-01-30 00:10:00,27.2,13.1,30.19,NNE,32,1.0,1.0,55,0.00,,,0.00,Wunderground v.1.15,2013-01-30 07:10:00,
2013-01-30 00:15:00,27.2,12.7,30.19,NNE,32,1.0,1.0,54,0.00,,,0.00,Wunderground v.1.15,2013-01-30 07:15:00,
2013-01-30 00:20:00,27.2,12.7,30.20,NNE,32,1.0,1.0,54,0.00,,,0.00,Wunderground v.1.15,2013-01-30 07:20:00,
2013-01-30 00:25:00,27.1,13.1,30.20,NNE,32,1.0,1.0,55,0.00,,,0.00,Wunderground v.1.15,2013-01-30 07:25:00,
2013-01-30 00:30:00,26.9,12.9,30.20,NNE,32,0.0,1.0,55,0.00,,,0.00,Wunderground v.1.15,2013-01-30 07:30:00,
2013-01-30 00:35:00,27.0,13.0,30.20,NNE,28,1.0,1.0,55,0.00,,,0.00,Wunderground v.1.15,2013-01-30 07:35:00,
2013-01-30 00:40:00,27.0,13.4,30.20,NNE,28,1.0,2.0,56,0.00,,,0.00,Wunderground v.1.15,2013-01-30 07:40:00,
2013-01-30 00:45:00,27.1,13.1,30.20,NNE,28,1.0,2.0,55,0.00,,,0.00,Wunderground v.1.15,2013-01-30 07:45:00,
2013-01-30 00:50:00,27.0,13.4,30.20,NNE,32,1.0,1.0,56,0.00,,,0.00,Wunderground v.1.15,2013-01-30 07:50:00,
2013-01-30 00:55:00,27.0,13.4,30.21,East,80,1.0,1.0,56,0.00,,,0.00,Wunderground v.1.15,2013-01-30 07:55:00,
2013-01-30 01:00:00,27.0,13.4,30.21,NE,49,1.0,2.0,56,0.00,,,0.00,Wunderground v.1.15,2013-01-30 08:00:00,
2013-01-30 01:05:00,26.9,13.3,30.21,NE,47,1.0,2.0,56,0.00,,,0.00,Wunderground v.1.15,2013-01-30 08:05:00,
2013-01-30 01:10:00,26.9,13.3,30.22,NNE,28,1.0,1.0,56,0.00,,,0.00,Wunderground v.1.15,2013-01-30 08:10:00,
2013-01-30 01:15:00,26.7,13.1,30.22,NNE,28,0.0,1.0,56,0.00,,,0.00,Wunderground v.1.15,2013-01-30 08:15:00,
2013-01-30 01:20:00,26.5,12.9,30.23,NNE,28,0.0,0.0,56,0.00,,,0.00,Wunderground v.1.15,2013-01-30 08:20:00,
2013-01-30 01:25:00,26.2,13.0,30.23,NNE,28,0.0,0.0,57,0.00,,,0.00,Wunderground v.1.15,2013-01-30 08:25:00,
2013-01-30 01:30:00,25.8,12.6,30.23,NNE,28,0.0,0.0,57,0.00,,,0.00,Wunderground v.1.15,2013-01-30 08:30:00,
2013-01-30 01:35:00,25.4,12.7,30.23,NNE,28,0.0,1.0,58,0.00,,,0.00,Wunderground v.1.15,2013-01-30 08:35:00,
2013-01-30 01:40:00,25.3,13.0,30.24,NNE,28,0.0,0.0,59,0.00,,,0.00,Wunderground v.1.15,2013-01-30 08:40:00,
2013-01-30 01:45:00,25.1,12.8,30.24,NNE,28,0.0,1.0,59,0.00,,,0.00,Wunderground v.1.15,2013-01-30 08:45:00,
2013-01-30 01:50:00,25.1,12.8,30.24,NNE,28,0.0,0.0,59,0.00,,,0.00,Wunderground v.1.15,2013-01-30 08:50:00,
2013-01-30 01:55:00,25.2,12.5,30.25,NNW,342,1.0,3.0,58,0.00,,,0.00,Wunderground v.1.15,2013-01-30 08:55:00,
2013-01-30 02:00:00,25.7,12.6,30.25,NNE,16,2.0,2.0,57,0.00,,,0.00,Wunderground v.1.15,2013-01-30 09:00:00,
2013-01-30 02:05:00,26.0,12.8,30.25,North,355,2.0,2.0,57,0.00,,,0.00,Wunderground v.1.15,2013-01-30 09:05:00,
2013-01-30 02:10:00,26.1,12.5,30.26,NNW,341,2.0,2.0,56,0.00,,,0.00,Wunderground v.1.15,2013-01-30 09:10:00,
2013-01-30 02:15:00,26.2,12.6,30.26,NNW,342,2.0,3.0,56,0.00,,,0.00,Wunderground v.1.15,2013-01-30 09:15:00,
2013-01-30 02:25:00,26.2,12.2,30.26,NW,322,3.0,3.0,55,0.00,,,0.00,Wunderground v.1.15,2013-01-30 09:25:00,
2013-01-30 02:30:00,26.1,12.5,30.26,NW,314,2.0,2.0,56,0.00,,,0.00,Wunderground v.1.15,2013-01-30 09:30:00,
2013-01-30 02:40:00,25.9,12.3,30.27,NNW,329,2.0,3.0,56,0.00,,,0.00,Wunderground v.1.15,2013-01-30 09:40:00,
2013-01-30 02:45:00,25.9,12.3,30.27,North,9,2.0,3.0,56,0.00,,,0.00,Wunderground v.1.15,2013-01-30 09:45:00,
2013-01-30 02:55:00,25.8,12.2,30.27,NW,326,2.0,6.0,56,0.00,,,0.00,Wunderground v.1.15,2013-01-30 09:55:00,
2013-01-30 03:00:00,25.8,12.2,30.27,NW,313,3.0,4.0,56,0.00,,,0.00,Wunderground v.1.15,2013-01-30 10:00:00,
2013-01-30 03:05:00,25.7,11.7,30.28,NW,315,2.0,4.0,55,0.00,,,0.00,Wunderground v.1.15,2013-01-30 10:05:00,
2013-01-30 03:15:00,25.5,12.0,30.28,North,360,3.0,3.0,56,0.00,,,0.00,Wunderground v.1.15,2013-01-30 10:15:00,
2013-01-30 03:20:00,25.4,11.9,30.28,NNW,348,3.0,4.0,56,0.00,,,0.00,Wunderground v.1.15,2013-01-30 10:20:00,
2013-01-30 03:25:00,25.3,11.8,30.28,NNW,333,3.0,4.0,56,0.00,,,0.00,Wunderground v.1.15,2013-01-30 10:25:00,
2013-01-30 03:30:00,25.1,11.6,30.29,NNW,343,2.0,2.0,56,0.00,,,0.00,Wunderground v.1.15,2013-01-30 10:30:00,
2013-01-30 03:35:00,25.0,11.5,30.29,NNE,24,2.0,7.0,56,0.00,,,0.00,Wunderground v.1.15,2013-01-30 10:35:00,
2013-01-30 03:40:00,25.1,11.6,30.29,North,355,3.0,3.0,56,0.00,,,0.00,Wunderground v.1.15,2013-01-30 10:40:00,
2013-01-30 03:45:00,24.9,11.8,30.29,North,355,2.0,3.0,57,0.00,,,0.00,Wunderground v.1.15,2013-01-30 10:45:00,
2013-01-30 03:50:00,24.7,11.6,30.29,NNW,344,1.0,1.0,57,0.00,,,0.00,Wunderground v.1.15,2013-01-30 10:50:00,
2013-01-30 03:55:00,24.5,11.4,30.29,NNW,341,1.0,1.0,57,0.00,,,0.00,Wunderground v.1.15,2013-01-30 10:55:00,
2013-01-30 04:00:00,24.4,11.3,30.29,NNW,342,1.0,1.0,57,0.00,,,0.00,Wunderground v.1.15,2013-01-30 11:00:00,
2013-01-30 04:05:00,24.3,11.2,30.29,NNW,344,1.0,1.0,57,0.00,,,0.00,Wunderground v.1.15,2013-01-30 11:05:00,
2013-01-30 04:10:00,24.2,11.1,30.29,NNW,344,1.0,1.0,57,0.00,,,0.00,Wunderground v.1.15,2013-01-30 11:10:00,
2013-01-30 04:15:00,24.2,11.5,30.29,NNW,343,2.0,2.0,58,0.00,,,0.00,Wunderground v.1.15,2013-01-30 11:15:00,
2013-01-30 04:20:00,24.2,11.5,30.30,North,355,3.0,3.0,58,0.00,,,0.00,Wunderground v.1.15,2013-01-30 11:20:00,
2013-01-30 04:25:00,24.1,11.4,30.30,NNW,340,2.0,3.0,58,0.00,,,0.00,Wunderground v.1.15,2013-01-30 11:25:00,
2013-01-30 04:30:00,24.0,11.3,30.31,North,360,1.0,1.0,58,0.00,,,0.00,Wunderground v.1.15,2013-01-30 11:30:00,
2013-01-30 04:35:00,24.0,11.3,30.31,North,5,1.0,4.0,58,0.00,,,0.00,Wunderground v.1.15,2013-01-30 11:35:00,
2013-01-30 04:40:00,24.1,11.4,30.31,NNW,344,2.0,2.0,58,0.00,,,0.00,Wunderground v.1.15,2013-01-30 11:40:00,
2013-01-30 04:45:00,24.0,11.3,30.32,NNW,334,2.0,2.0,58,0.00,,,0.00,Wunderground v.1.15,2013-01-30 11:45:00,
2013-01-30 04:50:00,24.1,11.0,30.32,NW,320,2.0,4.0,57,0.00,,,0.00,Wunderground v.1.15,2013-01-30 11:50:00,
2013-01-30 04:55:00,24.3,11.2,30.31,North,355,3.0,9.0,57,0.00,,,0.00,Wunderground v.1.15,2013-01-30 11:55:00,
2013-01-30 05:00:00,24.4,10.9,30.32,NW,315,3.0,3.0,56,0.00,,,0.00,Wunderground v.1.15,2013-01-30 12:00:00,
2013-01-30 05:05:00,24.4,10.9,30.32,NW,314,3.0,4.0,56,0.00,,,0.00,Wunderground v.1.15,2013-01-30 12:05:00,
2013-01-30 05:10:00,24.6,10.7,30.32,NNW,335,4.0,4.0,55,0.00,,,0.00,Wunderground v.1.15,2013-01-30 12:10:00,
2013-01-30 05:15:00,24.6,10.7,30.32,NNW,348,4.0,5.0,55,0.00,,,0.00,Wunderground v.1.15,2013-01-30 12:15:00,
2013-01-30 05:20:00,24.4,10.9,30.32,NW,324,3.0,3.0,56,0.00,,,0.00,Wunderground v.1.15,2013-01-30 12:20:00,
2013-01-30 05:25:00,24.2,11.1,30.33,NW,324,2.0,4.0,57,0.00,,,0.00,Wunderground v.1.15,2013-01-30 12:25:00,
2013-01-30 05:30:00,24.0,11.0,30.33,NNW,344,2.0,2.0,57,0.00,,,0.00,Wunderground v.1.15,2013-01-30 12:30:00,
2013-01-30 05:35:00,23.8,11.2,30.33,NW,324,2.0,2.0,58,0.00,,,0.00,Wunderground v.1.15,2013-01-30 12:35:00,
2013-01-30 05:40:00,23.7,11.1,30.33,NNW,336,2.0,4.0,58,0.00,,,0.00,Wunderground v.1.15,2013-01-30 12:40:00,
2013-01-30 05:45:00,23.8,11.2,30.34,NW,323,2.0,4.0,58,0.00,,,0.00,Wunderground v.1.15,2013-01-30 12:45:00,
2013-01-30 05:50:00,23.7,10.7,30.34,North,351,2.0,2.0,57,0.00,,,0.00,Wunderground v.1.15,2013-01-30 12:50:00,
2013-01-30 05:55:00,23.6,11.0,30.34,North,350,1.0,2.0,58,0.00,,,0.00,Wunderground v.1.15,2013-01-30 12:55:00,
2013-01-30 06:05:00,23.3,10.7,30.35,North,350,1.0,1.0,58,0.00,,,0.00,Wunderground v.1.15,2013-01-30 13:05:00,
2013-01-30 06:10:00,23.0,10.8,30.35,North,350,0.0,0.0,59,0.00,,,0.00,Wunderground v.1.15,2013-01-30 13:10:00,
2013-01-30 06:15:00,22.8,10.6,30.35,NNE,25,0.0,0.0,59,0.00,,,0.00,Wunderground v.1.15,2013-01-30 13:15:00,
2013-01-30 06:20:00,22.6,10.4,30.35,NNE,25,0.0,0.0,59,0.00,,,0.00,Wunderground v.1.15,2013-01-30 13:20:00,
2013-01-30 06:25:00,22.4,10.2,30.36,NNE,25,0.0,0.0,59,0.00,,,0.00,Wunderground v.1.15,2013-01-30 13:25:00,
2013-01-30 06:30:00,22.4,10.6,30.36,NNE,26,0.0,2.0,60,0.00,,,0.00,Wunderground v.1.15,2013-01-30 13:30:00,
2013-01-30 06:35:00,22.6,10.4,30.37,NNE,24,1.0,2.0,59,0.00,,,0.00,Wunderground v.1.15,2013-01-30 13:35:00,
2013-01-30 06:40:00,22.7,10.5,30.37,NNE,23,1.0,1.0,59,0.00,,,0.00,Wunderground v.1.15,2013-01-30 13:40:00,
2013-01-30 06:50:00,22.7,10.5,30.37,NNE,24,1.0,1.0,59,0.00,,,0.00,Wunderground v.1.15,2013-01-30 13:50:00,
2013-01-30 06:55:00,22.5,10.3,30.37,NNE,24,1.0,1.0,59,0.00,,,0.00,Wunderground v.1.15,2013-01-30 13:55:00,
2013-01-30 07:00:00,22.4,10.6,30.38,NNE,24,1.0,2.0,60,0.00,,,0.00,Wunderground v.1.15,2013-01-30 14:00:00,
2013-01-30 07:05:00,22.4,10.6,30.38,NNE,24,0.0,2.0,60,0.00,,,0.00,Wunderground v.1.15,2013-01-30 14:05:00,
2013-01-30 07:10:00,22.2,10.4,30.38,NNE,24,0.0,0.0,60,0.00,,,0.00,Wunderground v.1.15,2013-01-30 14:10:00,
2013-01-30 07:15:00,22.0,10.2,30.38,NNE,24,0.0,0.0,60,0.00,,,0.00,Wunderground v.1.15,2013-01-30 14:15:00,
2013-01-30 07:20:00,21.8,10.4,30.39,NNE,24,0.0,0.0,61,0.00,,,0.00,Wunderground v.1.15,2013-01-30 14:20:00,
2013-01-30 07:25:00,21.8,10.4,30.39,NNE,24,0.0,0.0,61,0.00,,,0.00,Wunderground v.1.15,2013-01-30 14:25:00,
2013-01-30 07:30:00,21.7,10.3,30.39,NNE,24,0.0,2.0,61,0.00,,,0.00,Wunderground v.1.15,2013-01-30 14:30:00,
2013-01-30 07:35:00,22.5,10.3,30.40,NNE,28,1.0,2.0,59,0.00,,,0.00,Wunderground v.1.15,2013-01-30 14:35:00,
2013-01-30 07:40:00,23.6,10.6,30.40,NNE,21,2.0,2.0,57,0.00,,,0.00,Wunderground v.1.15,2013-01-30 14:40:00,
2013-01-30 07:45:00,24.4,10.5,30.41,North,355,2.0,2.0,55,0.00,,,0.00,Wunderground v.1.15,2013-01-30 14:45:00,
2013-01-30 07:50:00,24.9,10.6,30.41,NNE,24,2.0,2.0,54,0.00,,,0.00,Wunderground v.1.15,2013-01-30 14:50:00,
2013-01-30 07:55:00,25.1,10.8,30.41,North,360,1.0,2.0,54,0.00,,,0.00,Wunderground v.1.15,2013-01-30 14:55:00,
2013-01-30 08:00:00,25.3,11.0,30.41,NNE,26,1.0,2.0,54,0.00,,,0.00,Wunderground v.1.15,2013-01-30 15:00:00,
2013-01-30 08:05:00,25.5,11.1,30.41,NNW,348,2.0,4.0,54,0.00,,,0.00,Wunderground v.1.15,2013-01-30 15:05:00,
2013-01-30 08:10:00,25.6,10.8,30.42,NNW,342,2.0,2.0,53,0.00,,,0.00,Wunderground v.1.15,2013-01-30 15:10:00,
2013-01-30 08:15:00,26.0,11.2,30.42,NNE,32,2.0,2.0,53,0.00,,,0.00,Wunderground v.1.15,2013-01-30 15:15:00,
2013-01-30 08:20:00,26.5,11.2,30.42,NNE,25,1.0,1.0,52,0.00,,,0.00,Wunderground v.1.15,2013-01-30 15:20:00,
2013-01-30 08:25:00,26.8,11.5,30.42,NNE,19,1.0,3.0,52,0.00,,,0.00,Wunderground v.1.15,2013-01-30 15:25:00,
2013-01-30 08:30:00,26.9,11.6,30.42,NNE,22,2.0,3.0,52,0.00,,,0.00,Wunderground v.1.15,2013-01-30 15:30:00,
2013-01-30 08:35:00,27.0,11.7,30.42,NNW,346,2.0,3.0,52,0.00,,,0.00,Wunderground v.1.15,2013-01-30 15:35:00,
2013-01-30 08:40:00,27.4,12.1,30.43,North,360,1.0,1.0,52,0.00,,,0.00,Wunderground v.1.15,2013-01-30 15:40:00,
2013-01-30 08:45:00,27.6,12.2,30.43,NNW,329,1.0,1.0,52,0.00,,,0.00,Wunderground v.1.15,2013-01-30 15:45:00,
2013-01-30 08:50:00,27.9,12.1,30.43,North,5,2.0,3.0,51,0.00,,,0.00,Wunderground v.1.15,2013-01-30 15:50:00,
2013-01-30 09:00:00,28.6,12.7,30.43,NW,317,2.0,2.0,51,0.00,,,0.00,Wunderground v.1.15,2013-01-30 16:00:00,
2013-01-30 09:05:00,29.1,13.2,30.43,NW,315,2.0,2.0,51,0.00,,,0.00,Wunderground v.1.15,2013-01-30 16:05:00,
2013-01-30 09:10:00,29.9,13.0,30.43,NW,311,1.0,3.0,49,0.00,,,0.00,Wunderground v.1.15,2013-01-30 16:10:00,
2013-01-30 09:15:00,30.5,13.1,30.43,NW,313,2.0,3.0,48,0.00,,,0.00,Wunderground v.1.15,2013-01-30 16:15:00,
2013-01-30 09:20:00,30.7,12.3,30.44,NW,318,3.0,4.0,46,0.00,,,0.00,Wunderground v.1.15,2013-01-30 16:20:00,
2013-01-30 09:25:00,30.8,11.9,30.44,West,281,4.0,4.0,45,0.00,,,0.00,Wunderground v.1.15,2013-01-30 16:25:00,
2013-01-30 09:30:00,31.0,11.6,30.44,West,275,4.0,4.0,44,0.00,,,0.00,Wunderground v.1.15,2013-01-30 16:30:00,
2013-01-30 09:35:00,31.3,11.4,30.44,WNW,296,4.0,6.0,43,0.00,,,0.00,Wunderground v.1.15,2013-01-30 16:35:00,
2013-01-30 09:40:00,31.3,11.9,30.44,WNW,285,4.0,4.0,44,0.00,,,0.00,Wunderground v.1.15,2013-01-30 16:40:00,
2013-01-30 09:45:00,31.6,12.2,30.45,NNW,341,4.0,4.0,44,0.00,,,0.00,Wunderground v.1.15,2013-01-30 16:45:00,
2013-01-30 09:50:00,32.0,12.5,30.45,NW,313,3.0,4.0,44,0.00,,,0.00,Wunderground v.1.15,2013-01-30 16:50:00,
2013-01-30 09:55:00,32.1,12.1,30.45,WNW,293,4.0,5.0,43,0.00,,,0.00,Wunderground v.1.15,2013-01-30 16:55:00,
2013-01-30 10:00:00,32.3,11.7,30.45,WNW,295,4.0,4.0,42,0.00,,,0.00,Wunderground v.1.15,2013-01-30 17:00:00,
2013-01-30 10:05:00,32.4,11.8,30.46,WNW,286,4.0,4.0,42,0.00,,,0.00,Wunderground v.1.15,2013-01-30 17:05:00,
2013-01-30 10:10:00,32.4,11.8,30.46,NW,312,4.0,4.0,42,0.00,,,0.00,Wunderground v.1.15,2013-01-30 17:10:00,
2013-01-30 10:15:00,32.6,12.0,30.46,WNW,296,3.0,4.0,42,0.00,,,0.00,Wunderground v.1.15,2013-01-30 17:15:00,
2013-01-30 10:20:00,32.8,11.6,30.46,North,360,3.0,5.0,41,0.00,,,0.00,Wunderground v.1.15,2013-01-30 17:20:00,
2013-01-30 10:25:00,33.3,11.5,30.47,NW,306,3.0,5.0,40,0.00,,,0.00,Wunderground v.1.15,2013-01-30 17:25:00,
2013-01-30 10:30:00,33.7,11.9,30.47,WNW,288,3.0,6.0,40,0.00,,,0.00,Wunderground v.1.15,2013-01-30 17:30:00,
2013-01-30 10:35:00,33.8,12.0,30.47,WNW,290,2.0,6.0,40,0.00,,,0.00,Wunderground v.1.15,2013-01-30 17:35:00,
2013-01-30 10:45:00,33.2,10.9,30.46,North,5,3.0,3.0,39,0.00,,,0.00,Wunderground v.1.15,2013-01-30 17:45:00,
2013-01-30 10:50:00,33.6,11.2,30.46,NW,314,3.0,3.0,39,0.00,,,0.00,Wunderground v.1.15,2013-01-30 17:50:00,
2013-01-30 10:55:00,34.0,10.4,30.46,NNW,340,3.0,3.0,37,0.00,,,0.00,Wunderground v.1.15,2013-01-30 17:55:00,
2013-01-30 11:05:00,34.4,10.2,30.46,WNW,296,3.0,5.0,36,0.00,,,0.00,Wunderground v.1.15,2013-01-30 18:05:00,
2013-01-30 11:10:00,35.1,10.8,30.45,WNW,286,2.0,3.0,36,0.00,,,0.00,Wunderground v.1.15,2013-01-30 18:10:00,
2013-01-30 11:15:00,36.0,8.2,30.45,NNW,335,3.0,3.0,31,0.00,,,0.00,Wunderground v.1.15,2013-01-30 18:15:00,
2013-01-30 11:20:00,36.5,7.2,30.45,NNW,347,6.0,6.0,29,0.00,,,0.00,Wunderground v.1.15,2013-01-30 18:20:00,
2013-01-30 11:25:00,36.4,7.1,30.44,NNW,340,8.0,8.0,29,0.00,,,0.00,Wunderground v.1.15,2013-01-30 18:25:00,
2013-01-30 11:35:00,37.4,8.0,30.44,NW,304,6.0,7.0,29,0.00,,,0.00,Wunderground v.1.15,2013-01-30 18:35:00,
2013-01-30 11:40:00,37.3,7.1,30.44,North,351,6.0,6.0,28,0.00,,,0.00,Wunderground v.1.15,2013-01-30 18:40:00,
2013-01-30 11:45:00,37.7,7.5,30.44,NNW,340,7.0,7.0,28,0.00,,,0.00,Wunderground v.1.15,2013-01-30 18:45:00,
2013-01-30 11:50:00,38.0,7.7,30.43,WNW,296,6.0,6.0,28,0.00,,,0.00,Wunderground v.1.15,2013-01-30 18:50:00,
2013-01-30 12:00:00,38.2,7.9,30.43,North,355,6.0,6.0,28,0.00,,,0.00,Wunderground v.1.15,2013-01-30 19:00:00,
2013-01-30 12:05:00,38.6,8.2,30.42,North,360,5.0,6.0,28,0.00,,,0.00,Wunderground v.1.15,2013-01-30 19:05:00,
2013-01-30 12:10:00,39.3,8.0,30.42,NNW,335,5.0,5.0,27,0.00,,,0.00,Wunderground v.1.15,2013-01-30 19:10:00,
2013-01-30 12:15:00,39.2,8.8,30.42,NNW,327,7.0,7.0,28,0.00,,,0.00,Wunderground v.1.15,2013-01-30 19:15:00,
2013-01-30 12:20:00,38.8,8.4,30.42,NNW,344,8.0,9.0,28,0.00,,,0.00,Wunderground v.1.15,2013-01-30 19:20:00,
2013-01-30 12:25:00,38.6,8.2,30.41,NNE,17,8.0,9.0,28,0.00,,,0.00,Wunderground v.1.15,2013-01-30 19:25:00,
2013-01-30 12:30:00,38.7,9.1,30.41,NNE,25,7.0,7.0,29,0.00,,,0.00,Wunderground v.1.15,2013-01-30 19:30:00,
2013-01-30 12:35:00,38.8,9.2,30.42,NW,313,8.0,10.0,29,0.00,,,0.00,Wunderground v.1.15,2013-01-30 19:35:00,
2013-01-30 12:40:00,38.8,10.0,30.41,NE,36,8.0,8.0,30,0.00,,,0.00,Wunderground v.1.15,2013-01-30 19:40:00,
2013-01-30 12:45:00,38.8,9.2,30.41,North,5,7.0,8.0,29,0.00,,,0.00,Wunderground v.1.15,2013-01-30 19:45:00,
2013-01-30 12:50:00,39.2,9.6,30.40,NE,52,7.0,11.0,29,0.00,,,0.00,Wunderground v.1.15,2013-01-30 19:50:00,
2013-01-30 13:00:00,38.7,9.9,30.40,North,360,7.0,18.0,30,0.00,,,0.00,Wunderground v.1.15,2013-01-30 20:00:00,
2013-01-30 13:05:00,38.6,9.0,30.40,North,355,8.0,18.0,29,0.00,,,0.00,Wunderground v.1.15,2013-01-30 20:05:00,
2013-01-30 13:10:00,38.8,10.0,30.40,NNW,340,9.0,9.0,30,0.00,,,0.00,Wunderground v.1.15,2013-01-30 20:10:00,
2013-01-30 13:15:00,38.9,10.1,30.39,West,281,8.0,9.0,30,0.00,,,0.00,Wunderground v.1.15,2013-01-30 20:15:00,
2013-01-30 13:20:00,39.2,9.6,30.39,North,360,8.0,8.0,29,0.00,,,0.00,Wunderground v.1.15,2013-01-30 20:20:00,
2013-01-30 13:25:00,39.0,9.4,30.39,NE,37,8.0,8.0,29,0.00,,,0.00,Wunderground v.1.15,2013-01-30 20:25:00,
2013-01-30 13:30:00,39.6,9.9,30.39,NW,308,7.0,7.0,29,0.00,,,0.00,Wunderground v.1.15,2013-01-30 20:30:00,
2013-01-30 13:35:00,39.6,9.9,30.38,NNE,26,7.0,7.0,29,0.00,,,0.00,Wunderground v.1.15,2013-01-30 20:35:00,
2013-01-30 13:40:00,40.1,10.3,30.39,North,5,6.0,6.0,29,0.00,,,0.00,Wunderground v.1.15,2013-01-30 20:40:00,
2013-01-30 13:45:00,40.3,10.5,30.38,NW,309,5.0,7.0,29,0.00,,,0.00,Wunderground v.1.15,2013-01-30 20:45:00,
2013-01-30 13:50:00,40.8,10.9,30.39,NW,324,5.0,10.0,29,0.00,,,0.00,Wunderground v.1.15,2013-01-30 20:50:00,
2013-01-30 13:55:00,40.4,9.8,30.38,NW,314,5.0,10.0,28,0.00,,,0.00,Wunderground v.1.15,2013-01-30 20:55:00,
2013-01-30 14:00:00,40.3,9.7,30.38,NNW,336,6.0,6.0,28,0.00,,,0.00,Wunderground v.1.15,2013-01-30 21:00:00,
2013-01-30 14:05:00,40.6,10.8,30.38,NW,304,6.0,7.0,29,0.00,,,0.00,Wunderground v.1.15,2013-01-30 21:05:00,
2013-01-30 14:10:00,40.5,10.7,30.38,North,355,5.0,6.0,29,0.00,,,0.00,Wunderground v.1.15,2013-01-30 21:10:00,
2013-01-30 14:15:00,41.3,10.6,30.37,NNW,331,5.0,6.0,28,0.00,,,0.00,Wunderground v.1.15,2013-01-30 21:15:00,
2013-01-30 14:20:00,41.2,11.3,30.37,NW,324,5.0,5.0,29,0.00,,,0.00,Wunderground v.1.15,2013-01-30 21:20:00,
2013-01-30 14:25:00,41.5,11.6,30.37,North,11,4.0,5.0,29,0.00,,,0.00,Wunderground v.1.15,2013-01-30 21:25:00,
2013-01-30 14:30:00,41.8,11.0,30.38,WNW,282,4.0,4.0,28,0.00,,,0.00,Wunderground v.1.15,2013-01-30 21:30:00,
2013-01-30 14:35:00,41.7,10.9,30.37,NNW,333,4.0,4.0,28,0.00,,,0.00,Wunderground v.1.15,2013-01-30 21:35:00,
2013-01-30 14:40:00,41.8,11.8,30.37,NW,325,4.0,6.0,29,0.00,,,0.00,Wunderground v.1.15,2013-01-30 21:40:00,
2013-01-30 14:45:00,41.5,11.6,30.37,NNW,338,5.0,6.0,29,0.00,,,0.00,Wunderground v.1.15,2013-01-30 21:45:00,
2013-01-30 14:55:00,41.4,11.5,30.37,NNW,336,5.0,5.0,29,0.00,,,0.00,Wunderground v.1.15,2013-01-30 21:55:00,
2013-01-30 15:00:00,41.9,11.9,30.37,NNE,18,4.0,4.0,29,0.00,,,0.00,Wunderground v.1.15,2013-01-30 22:00:00,
2013-01-30 15:05:00,41.7,11.7,30.37,NNW,343,4.0,4.0,29,0.00,,,0.00,Wunderground v.1.15,2013-01-30 22:05:00,
2013-01-30 15:10:00,42.0,12.0,30.37,NNW,336,5.0,5.0,29,0.00,,,0.00,Wunderground v.1.15,2013-01-30 22:10:00,
2013-01-30 15:15:00,42.1,12.8,30.37,NW,313,4.0,5.0,30,0.00,,,0.00,Wunderground v.1.15,2013-01-30 22:15:00,
2013-01-30 15:20:00,42.2,12.2,30.37,NE,42,3.0,5.0,29,0.00,,,0.00,Wunderground v.1.15,2013-01-30 22:20:00,
2013-01-30 15:25:00,42.2,12.9,30.37,NE,40,4.0,5.0,30,0.00,,,0.00,Wunderground v.1.15,2013-01-30 22:25:00,
2013-01-30 15:30:00,42.2,12.2,30.37,NW,325,5.0,5.0,29,0.00,,,0.00,Wunderground v.1.15,2013-01-30 22:30:00,
2013-01-30 15:35:00,42.6,12.5,30.37,West,276,4.0,6.0,29,0.00,,,0.00,Wunderground v.1.15,2013-01-30 22:35:00,
2013-01-30 15:40:00,42.3,13.0,30.37,WNW,286,4.0,10.0,30,0.00,,,0.00,Wunderground v.1.15,2013-01-30 22:40:00,
2013-01-30 15:45:00,42.4,13.1,30.37,North,355,4.0,10.0,30,0.00,,,0.00,Wunderground v.1.15,2013-01-30 22:45:00,
2013-01-30 15:50:00,42.6,12.5,30.37,NNW,328,3.0,3.0,29,0.00,,,0.00,Wunderground v.1.15,2013-01-30 22:50:00,
2013-01-30 15:55:00,42.6,12.5,30.37,NNW,328,3.0,4.0,29,0.00,,,0.00,Wunderground v.1.15,2013-01-30 22:55:00,
2013-01-30 16:00:00,42.5,13.2,30.37,WNW,289,3.0,3.0,30,0.00,,,0.00,Wunderground v.1.15,2013-01-30 23:00:00,
2013-01-30 16:05:00,42.5,13.2,30.36,NW,311,4.0,4.0,30,0.00,,,0.00,Wunderground v.1.15,2013-01-30 23:05:00,
2013-01-30 16:10:00,42.6,13.3,30.37,NW,315,4.0,5.0,30,0.00,,,0.00,Wunderground v.1.15,2013-01-30 23:10:00,
2013-01-30 16:15:00,42.5,13.2,30.37,North,355,4.0,5.0,30,0.00,,,0.00,Wunderground v.1.15,2013-01-30 23:15:00,
2013-01-30 16:20:00,42.5,13.2,30.37,WNW,292,4.0,4.0,30,0.00,,,0.00,Wunderground v.1.15,2013-01-30 23:20:00,
2013-01-30 16:25:00,42.3,13.8,30.37,NNW,334,4.0,4.0,31,0.00,,,0.00,Wunderground v.1.15,2013-01-30 23:25:00,
2013-01-30 16:30:00,42.0,13.5,30.37,NNW,346,4.0,8.0,31,0.00,,,0.00,Wunderground v.1.15,2013-01-30 23:30:00,
2013-01-30 16:35:00,41.8,13.3,30.36,North,350,4.0,8.0,31,0.00,,,0.00,Wunderground v.1.15,2013-01-30 23:35:00,
2013-01-30 16:40:00,41.6,13.2,30.36,NNW,340,4.0,4.0,31,0.00,,,0.00,Wunderground v.1.15,2013-01-30 23:40:00,
2013-01-30 16:45:00,41.3,12.9,30.36,NNW,332,5.0,5.0,31,0.00,,,0.00,Wunderground v.1.15,2013-01-30 23:45:00,
2013-01-30 16:50:00,40.8,12.5,30.36,NNE,20,6.0,6.0,31,0.00,,,0.00,Wunderground v.1.15,2013-01-30 23:50:00,
2013-01-30 16:55:00,40.6,13.0,30.36,NNE,17,6.0,6.0,32,0.00,,,0.00,Wunderground v.1.15,2013-01-30 23:55:00,
2013-01-30 17:00:00,40.4,12.8,30.36,ENE,69,6.0,6.0,32,0.00,,,0.00,Wunderground v.1.15,2013-01-31 00:00:00,
2013-01-30 17:05:00,40.2,12.6,30.37,NW,322,5.0,6.0,32,0.00,,,0.00,Wunderground v.1.15,2013-01-31 00:05:00,
2013-01-30 17:10:00,40.2,12.6,30.37,NE,38,4.0,4.0,32,0.00,,,0.00,Wunderground v.1.15,2013-01-31 00:10:00,
2013-01-30 17:15:00,40.1,13.3,30.37,NNW,347,5.0,5.0,33,0.00,,,0.00,Wunderground v.1.15,2013-01-31 00:15:00,
2013-01-30 17:25:00,39.8,13.0,30.37,NE,36,4.0,5.0,33,0.00,,,0.00,Wunderground v.1.15,2013-01-31 00:25:00,
2013-01-30 17:30:00,39.6,12.8,30.37,NNE,28,4.0,6.0,33,0.00,,,0.00,Wunderground v.1.15,2013-01-31 00:30:00,
2013-01-30 17:35:00,39.5,13.4,30.37,North,11,4.0,6.0,34,0.00,,,0.00,Wunderground v.1.15,2013-01-31 00:35:00,
2013-01-30 17:40:00,39.3,13.2,30.37,NNE,27,3.0,3.0,34,0.00,,,0.00,Wunderground v.1.15,2013-01-31 00:40:00,
2013-01-30 17:45:00,39.2,13.1,30.37,NNE,32,3.0,3.0,34,0.00,,,0.00,Wunderground v.1.15,2013-01-31 00:45:00,
2013-01-30 17:50:00,39.0,13.6,30.38,NNW,344,3.0,3.0,35,0.00,,,0.00,Wunderground v.1.15,2013-01-31 00:50:00,
2013-01-30 17:55:00,38.9,13.5,30.38,NNW,337,2.0,3.0,35,0.00,,,0.00,Wunderground v.1.15,2013-01-31 00:55:00,
2013-01-30 18:00:00,38.7,13.4,30.38,NNW,333,3.0,3.0,35,0.00,,,0.00,Wunderground v.1.15,2013-01-31 01:00:00,
2013-01-30 18:05:00,38.6,13.9,30.38,NE,42,2.0,3.0,36,0.00,,,0.00,Wunderground v.1.15,2013-01-31 01:05:00,
2013-01-30 18:10:00,38.4,13.7,30.38,NNE,17,2.0,2.0,36,0.00,,,0.00,Wunderground v.1.15,2013-01-31 01:10:00,
2013-01-30 18:15:00,38.3,13.6,30.38,NNE,13,2.0,3.0,36,0.00,,,0.00,Wunderground v.1.15,2013-01-31 01:15:00,
2013-01-30 18:20:00,38.3,13.6,30.39,NNE,17,2.0,2.0,36,0.00,,,0.00,Wunderground v.1.15,2013-01-31 01:20:00,
2013-01-30 18:25:00,38.2,14.2,30.39,NNE,24,2.0,2.0,37,0.00,,,0.00,Wunderground v.1.15,2013-01-31 01:25:00,
2013-01-30 18:30:00,38.1,14.1,30.39,North,9,2.0,3.0,37,0.00,,,0.00,Wunderground v.1.15,2013-01-31 01:30:00,
2013-01-30 18:35:00,38.1,14.1,30.40,NNE,23,2.0,3.0,37,0.00,,,0.00,Wunderground v.1.15,2013-01-31 01:35:00,
2013-01-30 18:40:00,38.0,14.0,30.40,NNE,23,1.0,1.0,37,0.00,,,0.00,Wunderground v.1.15,2013-01-31 01:40:00,
2013-01-30 18:45:00,37.8,13.8,30.40,NNE,22,1.0,2.0,37,0.00,,,0.00,Wunderground v.1.15,2013-01-31 01:45:00,
2013-01-30 18:50:00,37.7,13.7,30.40,NNE,20,1.0,1.0,37,0.00,,,0.00,Wunderground v.1.15,2013-01-31 01:50:00,
2013-01-30 18:55:00,37.6,13.6,30.40,NNE,22,1.0,1.0,37,0.00,,,0.00,Wunderground v.1.15,2013-01-31 01:55:00,
2013-01-30 19:00:00,37.7,13.7,30.40,NNE,15,2.0,2.0,37,0.00,,,0.00,Wunderground v.1.15,2013-01-31 02:00:00,
2013-01-30 19:05:00,37.7,13.7,30.40,NNE,21,2.0,2.0,37,0.00,,,0.00,Wunderground v.1.15,2013-01-31 02:05:00,
2013-01-30 19:15:00,37.4,14.1,30.41,NNE,18,0.0,1.0,38,0.00,,,0.00,Wunderground v.1.15,2013-01-31 02:15:00,
2013-01-30 19:20:00,37.3,14.0,30.41,NNE,18,0.0,0.0,38,0.00,,,0.00,Wunderground v.1.15,2013-01-31 02:20:00,
2013-01-30 19:25:00,37.2,13.9,30.41,NNE,18,0.0,0.0,38,0.00,,,0.00,Wunderground v.1.15,2013-01-31 02:25:00,
2013-01-30 19:30:00,37.1,13.8,30.41,NNE,17,1.0,1.0,38,0.00,,,0.00,Wunderground v.1.15,2013-01-31 02:30:00,
2013-01-30 19:35:00,37.1,13.8,30.41,NNE,13,1.0,1.0,38,0.00,,,0.00,Wunderground v.1.15,2013-01-31 02:35:00,
2013-01-30 19:40:00,37.0,14.3,30.41,NNE,13,1.0,2.0,39,0.00,,,0.00,Wunderground v.1.15,2013-01-31 02:40:00,
2013-01-30 19:45:00,37.0,14.3,30.41,NNE,13,1.0,2.0,39,0.00,,,0.00,Wunderground v.1.15,2013-01-31 02:45:00,
2013-01-30 19:50:00,36.9,14.2,30.41,NNE,13,1.0,1.0,39,0.00,,,0.00,Wunderground v.1.15,2013-01-31 02:50:00,
2013-01-30 19:55:00,36.6,13.9,30.41,NNE,13,0.0,1.0,39,0.00,,,0.00,Wunderground v.1.15,2013-01-31 02:55:00,
2013-01-30 20:00:00,36.3,14.3,30.41,NNE,13,0.0,0.0,40,0.00,,,0.00,Wunderground v.1.15,2013-01-31 03:00:00,
2013-01-30 20:05:00,35.9,13.9,30.41,NNE,13,0.0,0.0,40,0.00,,,0.00,Wunderground v.1.15,2013-01-31 03:05:00,
2013-01-30 20:10:00,35.5,14.1,30.41,NNE,13,0.0,0.0,41,0.00,,,0.00,Wunderground v.1.15,2013-01-31 03:10:00,
2013-01-30 20:15:00,35.1,14.3,30.40,NNE,13,0.0,0.0,42,0.00,,,0.00,Wunderground v.1.15,2013-01-31 03:15:00,
2013-01-30 20:20:00,34.6,13.8,30.41,NNE,13,0.0,0.0,42,0.00,,,0.00,Wunderground v.1.15,2013-01-31 03:20:00,
2013-01-30 20:25:00,34.3,14.1,30.41,NNE,13,0.0,0.0,43,0.00,,,0.00,Wunderground v.1.15,2013-01-31 03:25:00,
2013-01-30 20:30:00,33.9,14.3,30.41,NNE,13,0.0,0.0,44,0.00,,,0.00,Wunderground v.1.15,2013-01-31 03:30:00,
2013-01-30 20:35:00,33.5,13.9,30.41,NNE,13,0.0,0.0,44,0.00,,,0.00,Wunderground v.1.15,2013-01-31 03:35:00,
2013-01-30 20:40:00,33.4,14.3,30.40,NNE,13,0.0,0.0,45,0.00,,,0.00,Wunderground v.1.15,2013-01-31 03:40:00,
2013-01-30 20:45:00,33.2,14.1,30.41,NNE,13,0.0,0.0,45,0.00,,,0.00,Wunderground v.1.15,2013-01-31 03:45:00,
2013-01-30 20:50:00,33.1,14.0,30.41,NNE,13,0.0,1.0,45,0.00,,,0.00,Wunderground v.1.15,2013-01-31 03:50:00,
2013-01-30 20:55:00,33.9,14.8,30.41,NNE,13,1.0,1.0,45,0.00,,,0.00,Wunderground v.1.15,2013-01-31 03:55:00,
2013-01-30 21:00:00,34.2,14.5,30.41,NNE,13,1.0,1.0,44,0.00,,,0.00,Wunderground v.1.15,2013-01-31 04:00:00,
2013-01-30 21:05:00,34.1,14.4,30.41,NNE,13,0.0,1.0,44,0.00,,,0.00,Wunderground v.1.15,2013-01-31 04:05:00,
2013-01-30 21:10:00,33.7,14.6,30.41,NNE,13,0.0,0.0,45,0.00,,,0.00,Wunderground v.1.15,2013-01-31 04:10:00,
2013-01-30 21:15:00,33.2,14.1,30.41,NNE,13,0.0,0.0,45,0.00,,,0.00,Wunderground v.1.15,2013-01-31 04:15:00,
2013-01-30 21:20:00,32.5,14.5,30.42,NNE,13,0.0,0.0,47,0.00,,,0.00,Wunderground v.1.15,2013-01-31 04:20:00,
2013-01-30 21:30:00,31.5,14.0,30.42,NNE,13,0.0,0.0,48,0.00,,,0.00,Wunderground v.1.15,2013-01-31 04:30:00,
2013-01-30 21:35:00,31.1,14.1,30.41,NNE,13,0.0,0.0,49,0.00,,,0.00,Wunderground v.1.15,2013-01-31 04:35:00,
2013-01-30 21:40:00,30.7,13.8,30.42,NNE,13,0.0,0.0,49,0.00,,,0.00,Wunderground v.1.15,2013-01-31 04:40:00,
2013-01-30 21:45:00,30.4,14.0,30.41,NNE,13,0.0,0.0,50,0.00,,,0.00,Wunderground v.1.15,2013-01-31 04:45:00,
2013-01-30 21:50:00,30.2,13.8,30.41,NNE,13,0.0,0.0,50,0.00,,,0.00,Wunderground v.1.15,2013-01-31 04:50:00,
2013-01-30 21:55:00,29.9,13.9,30.41,NNE,13,0.0,0.0,51,0.00,,,0.00,Wunderground v.1.15,2013-01-31 04:55:00,
2013-01-30 22:00:00,29.7,13.8,30.41,NNE,13,0.0,0.0,51,0.00,,,0.00,Wunderground v.1.15,2013-01-31 05:00:00,
2013-01-30 22:05:00,29.5,14.0,30.41,NNE,13,0.0,0.0,52,0.00,,,0.00,Wunderground v.1.15,2013-01-31 05:05:00,
2013-01-30 22:10:00,29.3,13.4,30.41,NNE,13,0.0,0.0,51,0.00,,,0.00,Wunderground v.1.15,2013-01-31 05:10:00,
2013-01-30 22:15:00,29.0,13.6,30.41,NNE,13,0.0,0.0,52,0.00,,,0.00,Wunderground v.1.15,2013-01-31 05:15:00,
2013-01-30 22:20:00,28.8,13.4,30.41,NNE,13,0.0,0.0,52,0.00,,,0.00,Wunderground v.1.15,2013-01-31 05:20:00,
2013-01-30 22:30:00,28.8,13.8,30.42,NNE,13,0.0,0.0,53,0.00,,,0.00,Wunderground v.1.15,2013-01-31 05:30:00,
2013-01-30 22:35:00,29.5,13.6,30.42,SSE,157,0.0,0.0,51,0.00,,,0.00,Wunderground v.1.15,2013-01-31 05:35:00,
2013-01-30 22:40:00,30.1,13.7,30.42,SSE,157,0.0,0.0,50,0.00,,,0.00,Wunderground v.1.15,2013-01-31 05:40:00,
2013-01-30 22:45:00,30.6,14.1,30.42,SSE,157,0.0,0.0,50,0.00,,,0.00,Wunderground v.1.15,2013-01-31 05:45:00,
2013-01-30 22:50:00,30.7,14.2,30.42,SSE,157,0.0,0.0,50,0.00,,,0.00,Wunderground v.1.15,2013-01-31 05:50:00,
2013-01-30 22:55:00,30.8,14.3,30.42,SSE,161,0.0,1.0,50,0.00,,,0.00,Wunderground v.1.15,2013-01-31 05:55:00,
2013-01-30 23:00:00,31.0,14.0,30.42,SSE,167,1.0,1.0,49,0.00,,,0.00,Wunderground v.1.15,2013-01-31 06:00:00,
2013-01-30 23:05:00,31.0,14.0,30.42,South,169,1.0,1.0,49,0.00,,,0.00,Wunderground v.1.15,2013-01-31 06:05:00,
2013-01-30 23:10:00,31.0,14.5,30.42,South,169,1.0,1.0,50,0.00,,,0.00,Wunderground v.1.15,2013-01-31 06:10:00,
2013-01-30 23:15:00,30.8,14.3,30.42,South,170,1.0,1.0,50,0.00,,,0.00,Wunderground v.1.15,2013-01-31 06:15:00,
2013-01-30 23:20:00,30.6,14.6,30.42,South,170,1.0,1.0,51,0.00,,,0.00,Wunderground v.1.15,2013-01-31 06:20:00,
2013-01-30 23:25:00,30.3,14.3,30.42,South,170,0.0,1.0,51,0.00,,,0.00,Wunderground v.1.15,2013-01-31 06:25:00,
2013-01-30 23:30:00,29.9,14.4,30.43,South,170,0.0,1.0,52,0.00,,,0.00,Wunderground v.1.15,2013-01-31 06:30:00,
2013-01-30 23:35:00,29.9,14.4,30.42,SE,126,1.0,1.0,52,0.00,,,0.00,Wunderground v.1.15,2013-01-31 06:35:00,
2013-01-30 23:40:00,29.9,14.8,30.42,SE,126,1.0,1.0,53,0.00,,,0.00,Wunderground v.1.15,2013-01-31 06:40:00,
2013-01-30 23:45:00,29.8,14.3,30.43,SE,126,0.0,1.0,52,0.00,,,0.00,Wunderground v.1.15,2013-01-31 06:45:00,
2013-01-30 23:50:00,29.7,14.6,30.43,SE,126,0.0,0.0,53,0.00,,,0.00,Wunderground v.1.15,2013-01-31 06:50:00,
2013-01-30 23:55:00,29.4,14.4,30.43,SE,126,0.0,0.0,53,0.00,,,0.00,Wunderground v.1.15,2013-01-31 06:55:00,